Weather History for PAAQ - October, 2012

Change the Weather History Date:

Friday, October 19, 2012

  Actual Average Record
Temperature  
Mean Temperature 28 °F -  
Max Temperature 37 °F 39 °F 55 °F (1957)
Min Temperature 18 °F 23 °F -3 °F (1996)
Degree Days  
Heating Degree Days 38    
Moisture  
Dew Point 15 °F    
Average Humidity 57    
Maximum Humidity 88    
Minimum Humidity 29    
Precipitation  
Precipitation 0.00 in - - ()
Sea Level Pressure  
Sea Level Pressure 29.93 in    
Wind  
Wind Speed 9 mph (ENE)    
Max Wind Speed 29 mph    
Max Gust Speed 44 mph    
Visibility 10 miles    
Events      
Averages and records for this station are not official NWS values.
T = Trace of Precipitation, MM = Missing Value Source: NWS Daily Summary

Daily Weather History Graph

Daily Weather History Graph

Search for Another Location

Airport or City:

Trip Planner

Search our weather history database for the weather conditions in past years. The results will help you decide how hot, cold, wet, or windy it might be!

Date:

Astronomy

Oct. 19, 2012 Rise Set
Actual Time 8:52 AM AKDT 6:28 PM AKDT
Civil Twilight 8:06 AM AKDT 7:14 PM AKDT
Nautical Twilight 7:16 AM AKDT 8:04 PM AKDT
Astronomical Twilight 6:25 AM AKDT 8:55 PM AKDT
Moon 2:52 PM AKDT (10/19) 9:12 PM AKDT (10/19)
Length of Visible Light 11h 07m
Length of Day
9h 36m
Waxing Crescent, 25% of the Moon is Illuminated
Oct 19
Waxing Crescent
Oct 21
First Quarter
Oct 29
Full
Nov 6
Last Quarter
Nov 13
New

Hourly Weather History & Observations

Time (AKDT) Temp. Windchill Dew Point Humidity Pressure Visibility Wind Dir Wind Speed Gust Speed Precip Events Conditions
12:53 AM 21.9 °F 15.7 °F 18.0 °F 85% 29.83 in 10.0 mi ESE 4.6 mph - N/A   Clear
1:53 AM 21.9 °F - 16.0 °F 78% 29.84 in 10.0 mi Calm Calm - N/A   Clear
2:53 AM 21.0 °F - 17.1 °F 85% 29.84 in 10.0 mi Calm Calm - N/A   Clear
3:53 AM 21.9 °F 17.2 °F 17.1 °F 82% 29.84 in 10.0 mi Variable 3.5 mph - N/A   Clear
4:53 AM 21.9 °F 14.5 °F 18.0 °F 85% 29.85 in 10.0 mi ENE 5.8 mph - N/A   Clear
5:53 AM 21.0 °F 9.3 °F 18.0 °F 88% 29.86 in 10.0 mi SSE 11.5 mph - N/A   Clear
6:53 AM 19.0 °F 11.1 °F 16.0 °F 88% 29.88 in 10.0 mi ESE 5.8 mph - N/A   Clear
7:53 AM 18.0 °F - 14.0 °F 84% 29.90 in 10.0 mi Calm Calm - N/A   Clear
8:53 AM 24.1 °F - 17.1 °F 75% 29.91 in 10.0 mi Calm Calm - N/A   Clear
9:53 AM 30.9 °F 27.5 °F 15.1 °F 52% 29.91 in 10.0 mi Variable 3.5 mph - N/A   Clear
10:53 AM 25.0 °F 17.1 °F 19.9 °F 81% 29.94 in 10.0 mi Variable 6.9 mph - N/A   Clear
11:46 AM 33.8 °F 21.9 °F 17.6 °F 52% 29.92 in 10.0 mi NE 21.9 mph 31.1 mph N/A   Clear
11:53 AM 30.0 °F 21.7 °F 17.1 °F 59% 29.94 in 10.0 mi ENE 9.2 mph 31.1 mph N/A   Clear
12:53 PM 30.0 °F 23.2 °F 19.0 °F 64% 29.94 in 10.0 mi ESE 6.9 mph 20.7 mph N/A   Clear
1:53 PM 33.1 °F 25.5 °F 19.9 °F 59% 29.94 in 10.0 mi SSE 9.2 mph - N/A   Clear
2:53 PM 34.0 °F 27.2 °F 18.0 °F 52% 29.95 in 10.0 mi ESE 8.1 mph - N/A   Clear
3:53 PM 36.0 °F 29.0 °F 17.1 °F 46% 29.95 in 10.0 mi SE 9.2 mph - N/A   Clear
4:21 PM 37.4 °F 27.8 °F 15.8 °F 41% 29.92 in 10.0 mi NE 17.3 mph 28.8 mph N/A   Clear
4:53 PM 37.0 °F 26.4 °F 14.0 °F 39% 29.94 in 10.0 mi NE 20.7 mph 33.4 mph N/A   Clear
5:03 PM 37.4 °F 26.9 °F 8.6 °F 30% 29.93 in 10.0 mi NE 20.7 mph 32.2 mph N/A   Clear
5:53 PM 37.9 °F 25.9 °F 8.1 °F 29% 29.96 in 10.0 mi NNE 28.8 mph 39.1 mph N/A   Clear
6:53 PM 36.0 °F 24.2 °F 8.1 °F 31% 29.97 in 10.0 mi NNE 24.2 mph 32.2 mph N/A   Clear
7:53 PM 36.0 °F 24.2 °F 9.0 °F 33% 29.99 in 10.0 mi NNE 24.2 mph 41.4 mph N/A   Clear
8:53 PM 35.1 °F 23.0 °F 9.0 °F 34% 30.00 in 10.0 mi NNE 24.2 mph 41.4 mph N/A   Clear
9:53 PM 36.0 °F 23.2 °F 8.1 °F 31% 30.01 in 10.0 mi NNE 28.8 mph 43.7 mph N/A   Clear
10:53 PM 36.0 °F 23.5 °F 9.0 °F 33% 30.03 in 10.0 mi NNE 27.6 mph 42.6 mph N/A   Clear
11:53 PM 35.1 °F 22.5 °F 8.1 °F 33% 30.04 in 10.0 mi NNE 26.5 mph 43.7 mph N/A   Clear